Location: Newark
(27.9675°N, 86.8869°E)
Time: 08:12:23
(UTC+00:00)

deb Explorer IX - Pass Details

Date: 27 October 2019
Orbit: 546 x 1105 km, 38.8° (Epoch: 13 November)

Event Time Altitude Azimuth Distance (km) Brightness Sun altitude
Rises 05:31:55 0° 279° (W) 2,792 ? 48.9°
Reaches altitude 10° 05:34:23 10° 292° (WNW) 1,950 ? 49.0°
Maximum altitude 05:38:12 26° 350° (N) 1,270 ? 49.1°
Drops below altitude 10° 05:42:28 10° 48° (NE) 2,205 ? 49.2°
Sets 05:45:26 0° 60° (ENE) 3,238 ? 49.3°
